Location: Grange Verzio
(44.5000°N, 6.9833°E)
Time: 07:35:00
(UTC+00:00)

Cosmos 1892 Rocket - Pass Details

Date: 01 February 2023
Orbit: 605 x 632 km, 82.5° (Epoch: 22 March)

Event Time Altitude Azimuth Distance (km) Brightness Sun altitude
Rises 18:06:34 0° 174° (S) 2,901 7.0 -15.5°
Reaches altitude 10° 18:08:50 10° 169° (S) 1,995 6.1 -15.9°
Maximum altitude 18:13:07 51° 94° (E) 787 3.7 -16.7°
Drops below altitude 10° 18:17:24 10° 19° (NNE) 1,995 5.9 -17.4°
Enters shadow 18:18:15 - 16° (NNE) 2,326 6.3 -17.6°
